Terug naar catalogus

THOR ABLESTAR DEB

ActiefLEO
NORAD 357·DEBRIS·🇺🇸 United States

Gelanceerd Jun 29, 1961 vanaf Cape Canaveral Space Force Station

Loading…

Volgende Passages (komende 24 uur)

TLE

VersSource: Space-Track

Epoch: Sep 7, 2026, 12:25 UTC

1 00357U 61015DX  26250.51757925  .00000823  00000-0  51430-3 0  9993
2 00357  66.8084  38.8360 0010309 170.8555 189.2723 14.09704150307464

Volg THOR ABLESTAR DEB in realtime met AllMySat

Download on the App Store